This demonstration page uses our WeatherBlox Daily Observations layout. Learn more.

40.92945, -100.16068

Hourly Observations for March 4, 2020

Temp ( °F °C ) Dew Point ( °F °C ) Humidity (%) Winds ( mph kmh ) Pressure ( in mb ) Visibility ( mi km ) Precip ( " mm )
12:15 am 00:15 Clear 33 0.6 29 -1.5 86 86 WNW 8 13 30.09 1019 10 16.0934 0 0
12:35 am 00:35 Clear 33 0.7 30 -1.3 87 87 WNW 9 15 30.09 1019 10 16.0934 0 0
12:55 am 00:55 Clear 32 0.1 29 -1.5 89 89 WNW 9 15 30.11 1020 10 16.0934 0 0
1:15 am 01:15 Clear 32 0.1 29 -1.5 89 89 WNW 10 17 30.11 1020 10 16.0934 0 0
1:35 am 01:35 Clear 32 0 29 -1.5 90 90 W 8 13 30.12 1020 10 16.0934 0 0
1:55 am 01:55 Clear 30 -0.9 28 -2.4 90 90 W 7 11 30.14 1021 10 16.0934 0 0
2:15 am 02:15 Clear 29 -1.5 28 -2.5 93 93 NW 3 6 30.15 1021 10 16.0934 0 0
2:35 am 02:35 Clear 30 -1.1 28 -2.2 92 92 W 3 6 30.15 1021 10 16.0934 0 0
2:55 am 02:55 Clear 30 -1 27 -2.6 89 89 W 6 9 30.15 1021 10 16.0934 0 0
3:15 am 03:15 Clear 29 -1.4 27 -2.9 90 90 WNW 7 11 30.15 1021 10 16.0934 0 0
3:35 am 03:35 Clear 29 -1.9 27 -3 92 92 NW 10 17 30.15 1021 10 16.0934 0 0
3:55 am 03:55 Clear 30 -1.1 27 -2.6 90 90 NNW 8 13 30.14 1021 10 16.0934 0 0
4:15 am 04:15 Clear 28 -2.1 26 -3.3 92 92 NW 7 11 30.15 1021 10 16.0934 0 0
4:35 am 04:35 Clear 28 -2 26 -3.1 92 92 NW 7 11 30.15 1021 10 16.0934 0 0
4:55 am 04:55 Clear 28 -2 26 -3.2 92 92 NW 3 6 30.14 1021 10 16.0934 0 0
5:15 am 05:15 Clear 27 -2.9 25 -3.8 94 94 W 8 13 30.16 1021 10 16.0934 0 0
5:35 am 05:35 Clear 28 -2.5 26 -3.5 93 93 WNW 8 13 30.16 1021 10 16.0934 0 0
5:55 am 05:55 Clear 28 -2.5 26 -3.6 92 92 NW 7 11 30.15 1021 10 16.0934 0 0
6:15 am 06:15 Clear 27 -2.8 25 -4 92 92 WNW 7 11 30.17 1022 10 16.0934 0 0
6:35 am 06:35 Clear 27 -3 25 -4.1 92 92 WNW 7 11 30.17 1022 10 16.0934 0 0
6:55 am 06:55 Clear 27 -2.9 25 -3.8 94 94 W 6 9 30.17 1022 10 16.0934 0 0
7:15 am 07:15 Sunny 27 -3 25 -4 93 93 W 5 7 30.17 1022 10 16.0934 0 0
7:35 am 07:35 Sunny 27 -2.8 25 -4 92 92 WNW 5 7 30.16 1021 10 16.0934 0 0
7:55 am 07:55 Sunny 30 -1.3 28 -2.5 92 92 WNW 5 7 30.14 1021 10 16.0934 0 0
8:15 am 08:15 Sunny 31 -0.4 28 -2 89 89 WSW 3 6 30.13 1020 10 16.0934 0 0
8:35 am 08:35 Sunny 32 0 29 -1.9 87 87 WNW 6 9 30.13 1020 10 16.0934 0 0
8:55 am 08:55 Sunny 34 0.9 30 -1.2 86 86 WNW 5 7 30.11 1020 10 16.0934 0 0
9:15 am 09:15 Sunny 35 1.8 31 -0.8 83 83 Calm 30.1 1019 10 16.0934 0 0
9:35 am 09:35 Sunny 37 2.8 31 -0.4 80 80 Calm 30.09 1019 10 16.0934 0 0
9:55 am 09:55 Sunny 40 4.5 32 0.1 73 73 Calm 30.06 1018 10 16.0934 0 0
10:15 am 10:15 Sunny 44 6.5 33 0.6 66 66 Calm 30.04 1017 10 16.0934 0 0
10:35 am 10:35 Sunny 49 9.5 35 1.5 58 58 S 9 15 30 1016 10 16.0934 0 0
10:55 am 10:55 Sunny 53 11.9 29 -1.6 39 39 SSW 21 33 29.97 1015 10 16.0934 0 0
11:15 am 11:15 Sunny 53 11.5 29 -1.6 40 40 SSW 22 35 29.98 1015 10 16.0934 0 0
11:35 am 11:35 Sunny 54 12.1 29 -1.5 39 39 SW 23 37 29.97 1015 10 16.0934 0 0
11:55 am 11:55 Sunny 55 12.8 31 -0.8 39 39 SW 21 33 29.97 1015 10 16.0934 0 0
12:15 pm 12:15 Sunny 56 13.4 28 -2 35 35 SW 21 33 29.95 1014 10 16.0934 0 0
12:35 pm 12:35 Sunny 57 13.9 29 -1.4 35 35 SSW 23 37 29.93 1013 10 16.0934 0 0
12:55 pm 12:55 Sunny 58 14.3 31 -0.4 37 37 SSW 22 35 29.9 1013 10 16.0934 0 0
1:15 pm 13:15 Sunny 59 15 31 -0.6 35 35 SW 23 37 29.88 1012 10 16.0934 0 0
1:35 pm 13:35 Sunny 60 15.4 30 -1.1 32 32 SW 20 31 29.86 1011 10 16.0934 0 0
1:55 pm 13:55 Sunny 62 16.5 30 -1.2 30 30 SW 25 41 29.84 1011 10 16.0934 0 0
2:15 pm 14:15 Sunny 62 16.7 29 -1.6 29 29 SW 22 35 29.83 1010 10 16.0934 0 0
2:35 pm 14:35 Sunny 64 17.6 29 -1.4 28 28 SW 24 39 29.8 1009 10 16.0934 0 0
2:55 pm 14:55 Sunny 64 17.7 28 -2.5 25 25 SSW 24 39 29.8 1009 10 16.0934 0 0
3:15 pm 15:15 Sunny 65 18.1 28 -2.4 25 25 SW 20 31 29.79 1009 10 16.0934 0 0
3:35 pm 15:35 Sunny 65 18.5 28 -2.3 24 24 SSW 25 41 29.78 1008 10 16.0934 0 0
3:55 pm 15:55 Sunny 65 18.5 27 -2.7 24 24 SW 25 41 29.78 1008 10 16.0934 0 0
4:15 pm 16:15 Sunny 66 18.8 27 -2.6 23 23 SSW 26 43 29.76 1008 10 16.0934 0 0
4:35 pm 16:35 Sunny 66 18.8 25 -3.7 22 22 SSW 24 39 29.75 1008 10 16.0934 0 0
4:55 pm 16:55 Sunny 65 18.6 24 -4.3 21 21 SSW 25 41 29.74 1007 10 16.0934 0 0
5:15 pm 17:15 Sunny 65 18.1 26 -3.5 23 23 SSW 22 35 29.74 1007 10 16.0934 0 0
5:35 pm 17:35 Sunny 64 17.5 26 -3.5 24 24 SSW 23 37 29.73 1007 10 16.0934 0 0
5:55 pm 17:55 Sunny 62 16.8 26 -3.4 25 25 SSW 23 37 29.74 1007 10 16.0934 0 0
6:15 pm 18:15 Sunny 61 16.1 25 -3.8 25 25 SSW 23 37 29.75 1007 10 16.0934 0 0
6:35 pm 18:35 Clear 59 15.2 25 -4 27 27 SSW 21 33 29.74 1007 10 16.0934 0 0
6:55 pm 18:55 Clear 59 15 25 -3.8 27 27 SSW 22 35 29.77 1008 10 16.0934 0 0
7:15 pm 19:15 Clear 58 14.3 25 -4 28 28 SSW 22 35 29.78 1009 10 16.0934 0 0
7:35 pm 19:35 Clear 57 13.9 24 -4.2 28 28 SSW 21 33 29.79 1009 10 16.0934 0 0
7:55 pm 19:55 Clear 55 13 24 -4.2 30 30 SW 16 26 29.79 1009 10 16.0934 0 0
8:15 pm 20:15 Clear 54 12 25 -4 33 33 SW 18 30 29.81 1010 10 16.0934 0 0
8:35 pm 20:35 Clear 52 11.3 25 -4.1 34 34 SW 15 24 29.82 1010 10 16.0934 0 0
8:55 pm 20:55 Clear 53 11.5 24 -4.5 33 33 SW 21 33 29.82 1010 10 16.0934 0 0
9:15 pm 21:15 Clear 52 10.9 24 -4.3 34 34 SW 12 19 29.84 1011 10 16.0934 0 0
9:35 pm 21:35 Clear 50 10 25 -4 37 37 WSW 13 20 29.86 1011 10 16.0934 0 0
9:55 pm 21:55 Clear 48 8.7 26 -3.5 42 42 WSW 10 17 29.88 1012 10 16.0934 0 0
10:15 pm 22:15 Clear 47 8.1 26 -3.6 44 44 W 10 17 29.92 1013 10 16.0934 0 0
10:35 pm 22:35 Clear 45 7.3 26 -3.2 48 48 W 13 20 29.93 1013 10 16.0934 0 0
10:55 pm 22:55 Clear 47 8.2 26 -3.2 45 45 W 13 20 29.93 1013 10 16.0934 0 0
11:15 pm 23:15 Clear 46 7.6 27 -3 47 47 W 10 17 29.93 1014 10 16.0934 0 0
11:35 pm 23:35 Clear 48 8.7 27 -2.6 45 45 NW 20 31 29.96 1015 10 16.0934 0 0
11:55 pm 23:55 Clear 45 7 29 -1.7 54 54 NNW 17 28 30 1016 10 16.0934 0 0

Powered by AerisWeather